Regional Weather Roundup
Issued by NWS

Home | Current Version | Previous Version | Graphics & Text | Print | Product List | Glossary On
Versions: 1 2 3 4 5 6 7 8 9 10 11 12 13 14 15 16 17 18 19 20 21 22 23 24 25 26 27 28 29 30 31 32 33 34 35 36 37 38 39 40 41 42 43 44 45 46 47 48 49 50
000
ASUS45 KTFX 020710
RWRMT
MONTANA REGIONAL WEATHER ROUNDUP
NATIONAL WEATHER SERVICE GREAT FALLS MT
100 AM MDT SUN AUG 02 2015

NOTE: "FAIR" INDICATES FEW OR NO CLOUDS BELOW 12000 FEET WITH NO
SIGNIFICANT WEATHER AND/OR OBSTRUCTIONS TO VISIBILITY.

MTZ001>007-043-020800-
WEST OF THE DIVIDE

CITY           SKY/WX    TMP DP  RH WIND       PRES   REMARKS
KALISPELL      SUNNY     56  34  43 CALM      29.93R
MISSOULA       CLEAR     64  38  38 CALM      29.98R
BUTTE          CLEAR     55  36  48 SE3       30.15R
MULLAN PASS    PTCLDY    71  13  10 W3        30.17S
DEER LODGE       N/A     55  37  50 W6        30.12R
EUREKA           N/A     63  30  29 N3        29.92R
HAMILTON         N/A     64  37  36 S5        30.01R
LIBBY            N/A     63  30  29 CALM      29.94R
PLAINS           N/A     58  37  45 CALM      29.96R
RONAN            N/A     59  37  43 CALM      30.01R
$$

MTZ008-052>055-020800-
SOUTHWEST MONTANA

CITY           SKY/WX    TMP DP  RH WIND       PRES   REMARKS
BOZEMAN        CLEAR     60  45  57 SE8       30.05R
DILLON         CLEAR     59  39  47 S3        30.10R
W YELLOWSTONE  CLEAR     46  41  81 CALM      30.22S
THREE FORKS      N/A     58  58 100 CALM      30.03R
TWIN BRIDGES     N/A     59  39  47 E3        30.07R
$$

MTZ009-010-012-014-046-048-049-054-020800-
EAST SLOPES AND CENTRAL MONTANA

CITY           SKY/WX    TMP DP  RH WIND       PRES   REMARKS
CUT BANK       PTCLDY    63  45  51 NW15      30.02R
GREAT FALLS    CLEAR     61  37  41 SW10      29.93S
MALMSTROM AFB  CLEAR     65  35  31 NW2       29.93R
HELENA         CLEAR     72  34  24 CALM      29.98S
CONRAD           N/A     62  41  46 NW1       30.00R
$$

MTZ011-013-016-021-045-047-050-051-020800-
NORTH CENTRAL MONTANA

CITY           SKY/WX    TMP DP  RH WIND       PRES   REMARKS
HAVRE          CLEAR     66  56  70 E18       29.93R
LEWISTOWN      CLEAR     65  41  41 E7        29.99R
CHINOOK          N/A     64  55  72 E6        29.96R
FORT BENTON      N/A     75  50  41 NE8       29.91R
$$

MTZ017>020-022>027-061-062-020800-
NORTHEAST MONTANA

CITY           SKY/WX    TMP DP  RH WIND       PRES   REMARKS
GLASGOW        CLEAR     63  51  65 NE8       29.92R
JORDAN           N/A     70  56  61 NE12      29.92R
SIDNEY         CLEAR    N/A N/A N/A NW9       29.88R
WOLF POINT     CLEAR     63  52  67 E6        29.91R
MALTA            N/A     65  53  65 N1        29.92R
PLENTYWOOD       N/A     61  54  77 N7        29.91S
POPLAR           N/A     61  54  77 NE6       29.91R
SCOBEY           N/A     56  50  80 CALM      29.93R
$$

MTZ028>42-056>058-020800-
SOUTHCENTRAL AND SOUTHEAST MONTANA

CITY           SKY/WX    TMP DP  RH WIND       PRES   REMARKS
BAKER          CLEAR     65  44  46 W3        29.91R
BILLINGS       MOCLDY    79  33  19 SW6       29.95S
LIVINGSTON     CLEAR     60  39  45 CALM      30.04R
MILES CITY     CLEAR     72  38  29 NE10      29.88R
FORSYTH          N/A     70  37  30 CALM      29.88R
LAUREL           N/A     72  34  24 W3        29.95R
ROUNDUP          N/A     66  35  31 W2        29.87R
$$

REGIONAL REPORTS...DAKOTAS

CITY           SKY/WX    TMP DP  RH WIND       PRES   REMARKS
WILLISTON      CLEAR     64  54  69 N6        29.88R
MINOT          CLEAR     63  58  83 NW10      29.80R
DICKINSON      CLEAR     64  53  67 N7        29.87R
CROSBY         FAIR      55  55 100 NW9       29.89R
BISMARCK       CLEAR     69  53  56 W13       29.75R
GRAND FORKS    PTCLDY    68  62  81 N13       29.69R
FARGO          PTCLDY    69  65  86 S3        29.65S
BUFFALO SD       N/A     71  34  25 NW7       29.84R
RAPID CITY     CLEAR     69  60  73 S6        29.91F
$$

REGIONAL REPORTS...WYOMING/IDAHO/WASHINGTON

CITY           SKY/WX    TMP DP  RH WIND       PRES   REMARKS
GILLETTE       CLEAR     61  32  33 S10       29.99S
SHERIDAN       PTCLDY    88  30  12 S13       29.96F
BUFFALO WY     CLEAR     72  29  20 W12       30.06S
CODY           CLEAR     72  34  25 SW9       30.08S
YELLOWSTONE LA   N/A     45  34  65 NW3       30.33F
IDAHO FALLS    PTCLDY    60  48  64 E6        30.05F
SALMON         CLEAR     61  43  51 E3        30.02R
BOISE          MOCLDY    80  36  20 E6        29.88S
SPOKANE        MOCLDY    74  23  15 SE7       29.89S
$$

REGIONAL REPORTS...ALBERTA

CITY           SKY/WX    TMP DP  RH WIND       PRES   REMARKS
EDMONTON       CLEAR     54  52  94 S3        30.02S
CALGARY        PTCLDY    63  54  72 S2        30.10S
LETHBRIDGE     CLEAR     63  52  67 NE9       30.03R
MEDICINE HAT   CLEAR     66  52  59 E13       30.00R
WATERTON GATE    N/A     59  50  72 N3          N/A
CARDSTON         N/A     59  50  72 NW6         N/A
$$

REGIONAL REPORTS...SASKATCHEWAN

CITY           SKY/WX    TMP DP  RH WIND       PRES   REMARKS
SWIFT CURRENT  CLEAR     59  52  77 NW9       29.99R
REGINA         CLEAR     55  54  94 W7        29.90R
SASKATOON      CLEAR     52  52 100 NW8       29.96R
CYPRESS HILLS    N/A     59  48  67 E7          N/A
VAL MARIE        N/A     55  52  88 NE6         N/A
ROCKGLEN         N/A     55  52  88 NW6         N/A
ASSINIBOIA       N/A     50  48  93 SW2         N/A
$$


USA.gov is the U.S. government's official web portal to all federal, state and local government web resources and services.